(219222) = 1998 NR1 = 1999 VY133

Discovered at Kitt Peak on 1999-11-10 by Spacewatch.

Orbit

Orbit type: Main Belt

Note: WebGL enabled browser required.

epoch2022-01-21.0
epoch JD2459600.5
perihelion date2020-04-03.47382
perihelion JD2458942.97382
argument of perihelion (°)85.46394
ascending node (°)335.41887
inclination (°)1.02396
eccentricity0.0921018
perihelion distance (AU)2.6721210
Tisserand w.r.t. Jupiter3.3
ΔV w.r.t. Earth (km/sec)10.2
semimajor axis (AU)2.9431947
mean anomaly (°)128.34780
mean daily motion (°/day)0.19519800
aphelion distance (AU)3.214
period (years)5.05
P-vector [x]0.48653127
P-vector [y]0.79431738
P-vector [z]0.36379559
Q-vector [x]-0.87363154
Q-vector [y]0.44587175
Q-vector [z]0.19484950
absolute magnitude16.24
phase slope0.15
uncertainty0
referenceMPO 695626
observations used417
oppositions17
arc length (days)8706
first opposition used1998
last opposition used2022
residual rms (arc-secs)0.79
perturbers coarse indicatorM-v
perturbers precise indicator003Ek
first observation date used1998-07-03.0
last observation date used2022-05-04.0
computer namePan
JD of orbit computation2456966.800617
perihelion JD uncertainty (days)1.5527E-04
argument of perihelion uncertainty (°)3.1067E-04
ascending node uncertainty (°)3.0929E-04
inclination uncertainty (°)5.0267E-06
eccentricity uncertainty 5.2748E-08
perihelion distance uncertainty (AU)1.6085E-07
Minimum Orbit Intersection Distances (in AU)
for orbit epoch: 2458200.5, reference: MPO410994
Mercury2.36408
Venus1.95394
Earth1.68673
Mars1.12949
Jupiter2.05574
Saturn6.33884
Uranus15.1279
Neptune27.0128

Observations

429 total observations over interval: 1998 07 03.37944 – 2022 05 28.305021
These data are available for download (format description).

Date (UT) J2000 RA J2000 Dec Magn Location Ref
1998 07 03.37944 20 52 50.21 -18 26 01.4 21.2 V 691 – Steward Observatory, Kitt Peak-Spacewatch MPC 42730
1998 07 03.40164 20 52 49.39 -18 26 04.3 21.5 V 691 – Steward Observatory, Kitt Peak-Spacewatch MPC 42730
1998 07 03.42345 20 52 48.67 -18 26 07.3 21.3 V 691 – Steward Observatory, Kitt Peak-Spacewatch MPC 42730
1999 10 06.32739 03 10 57.22 +19 09 58.0 20.7   704 – Lincoln Laboratory ETS, New Mexico MPS 38967
1999 10 06.34062 03 10 56.82 +19 09 55.9 20.8   704 – Lincoln Laboratory ETS, New Mexico MPS 38967
1999 10 06.35385 03 10 56.50 +19 09 55.9 20.7   704 – Lincoln Laboratory ETS, New Mexico MPS 38967
1999 10 06.36709 03 10 56.19 +19 09 54.2 20.5   704 – Lincoln Laboratory ETS, New Mexico MPS 38967
1999 11 10.35602 02 45 45.30 +17 36 44.9 19.7 V 691 – Steward Observatory, Kitt Peak-Spacewatch MPS 8799
1999 11 10.37836 02 45 44.09 +17 36 39.9 19.8 V 691 – Steward Observatory, Kitt Peak-Spacewatch MPS 8799
1999 11 10.40035 02 45 42.93 +17 36 34.8 19.7 V 691 – Steward Observatory, Kitt Peak-Spacewatch MPS 8799
1999 11 14.36254 02 42 19.54 +17 21 33.2 19.9 V 691 – Steward Observatory, Kitt Peak-Spacewatch MPS 8799
1999 11 14.38470 02 42 18.39 +17 21 28.1 20.2 V 691 – Steward Observatory, Kitt Peak-Spacewatch MPS 8799
1999 11 14.40686 02 42 17.24 +17 21 22.7 20.0 V 691 – Steward Observatory, Kitt Peak-Spacewatch MPS 8799
2001 01 26.43110 10 22 05.70 +10 30 24.5 21.4 V 691 – Steward Observatory, Kitt Peak-Spacewatch MPS 38967
2001 01 26.45226 10 22 04.86 +10 30 28.4 20.8 V 691 – Steward Observatory, Kitt Peak-Spacewatch MPS 38967
2001 01 26.47322 10 22 04.05 +10 30 32.7 21.1 V 691 – Steward Observatory, Kitt Peak-Spacewatch MPS 38967
2004 10 13.32749 02 42 31.63 +17 11 32.6 20.0 V 691 – Steward Observatory, Kitt Peak-Spacewatch MPS 117443
2004 10 13.35427 02 42 30.49 +17 11 28.4 20.1 V 691 – Steward Observatory, Kitt Peak-Spacewatch MPS 117443
2004 10 13.38116 02 42 29.35 +17 11 24.1 20.0 V 691 – Steward Observatory, Kitt Peak-Spacewatch MPS 117443
2004 10 15.35737 02 41 06.80 +17 06 00.5 19.6 R G96 – Mt. Lemmon Survey MPS 117443
2004 10 15.36527 02 41 06.46 +17 05 58.9 19.6 R G96 – Mt. Lemmon Survey MPS 117443
2004 10 15.37316 02 41 06.10 +17 05 57.6 19.3 R G96 – Mt. Lemmon Survey MPS 117443
2004 10 15.38105 02 41 05.76 +17 05 56.1 19.1 R G96 – Mt. Lemmon Survey MPS 117443
2004 11 04.35292 02 24 47.90 +15 54 47.2 19.4 R 703 – Catalina Sky Survey MPS 118260
2004 11 04.36260 02 24 47.39 +15 54 43.6 18.7 R 703 – Catalina Sky Survey MPS 118260
2004 11 04.37228 02 24 46.88 +15 54 42.9 19.5 R 703 – Catalina Sky Survey MPS 118260
2004 11 04.38214 02 24 46.26 +15 54 40.0 18.6 R 703 – Catalina Sky Survey MPS 118260
2005 10 07.63105 09 12 53.071 +16 42 06.58 20.7 R 568 – Maunakea MPS 158743
2005 10 07.63728 09 12 53.568 +16 42 04.37 21.0 R 568 – Maunakea MPS 158743
2006 01 26.35999 10 02 04.92 +12 28 26.5 20.2 V G96 – Mt. Lemmon Survey MPS 160184
2006 01 26.36729 10 02 04.59 +12 28 27.6 20.4 V G96 – Mt. Lemmon Survey MPS 160184
2006 01 26.38191 10 02 03.94 +12 28 30.5 20.6 V G96 – Mt. Lemmon Survey MPS 160184
2006 02 20.26518 09 41 47.07 +14 06 40.8 19.5 V 703 – Catalina Sky Survey MPS 163568
2006 02 20.27275 09 41 46.82 +14 06 40.2 19.0 V 703 – Catalina Sky Survey MPS 163568
2006 02 20.28032 09 41 46.21 +14 06 44.3 19.6 V 703 – Catalina Sky Survey MPS 163568
2006 02 20.28789 09 41 45.88 +14 06 45.0 21.3 V 703 – Catalina Sky Survey MPS 163568
2006 02 23.30316 09 39 17.56 +14 18 04.6 20.3 V G96 – Mt. Lemmon Survey MPS 163568
2006 02 23.31127 09 39 17.17 +14 18 06.6 20.3 V G96 – Mt. Lemmon Survey MPS 163568
2006 02 23.31929 09 39 16.77 +14 18 08.4 20.0 V G96 – Mt. Lemmon Survey MPS 163568
2006 02 23.32748 09 39 16.38 +14 18 10.3 20.1 V G96 – Mt. Lemmon Survey MPS 163568
2006 03 08.11001 09 30 01.89 +14 58 55.4 20.9 V 691 – Steward Observatory, Kitt Peak-Spacewatch MPS 165898
2006 03 08.12291 09 30 01.42 +14 58 57.5 21.1 V 691 – Steward Observatory, Kitt Peak-Spacewatch MPS 165898
2006 03 08.13579 09 30 00.95 +14 58 59.3 20.8 V 691 – Steward Observatory, Kitt Peak-Spacewatch MPS 165898
2006 03 24.18878 09 22 48.14 +15 27 38.7 21.1 V G96 – Mt. Lemmon Survey MPS 166903
2006 03 24.19446 09 22 48.00 +15 27 38.7 20.8 V G96 – Mt. Lemmon Survey MPS 166903
2006 03 24.20027 09 22 47.89 +15 27 39.4 20.8 V G96 – Mt. Lemmon Survey MPS 166903
2006 03 24.20610 09 22 47.82 +15 27 39.3 20.8 V G96 – Mt. Lemmon Survey MPS 166903
2007 04 15.34835 14 57 26.91 -18 14 26.7 21.4 V 691 – Steward Observatory, Kitt Peak-Spacewatch MPS 206775
2007 04 15.36597 14 57 26.15 -18 14 24.7 21.3 V 691 – Steward Observatory, Kitt Peak-Spacewatch MPS 206775
2007 04 15.38360 14 57 25.38 -18 14 21.3 21.0 V 691 – Steward Observatory, Kitt Peak-Spacewatch MPS 206775
2007 04 19.37535 14 54 33.24 -18 03 20.5 21.0 V 691 – Steward Observatory, Kitt Peak-Spacewatch MPS 206775
2007 04 19.39394 14 54 32.38 -18 03 17.7 21.2 V 691 – Steward Observatory, Kitt Peak-Spacewatch MPS 206775
2007 04 19.41228 14 54 31.56 -18 03 14.2 21.0 V 691 – Steward Observatory, Kitt Peak-Spacewatch MPS 206775
2009 09 18.41369 02 26 03.61 +15 37 53.9 20.3 V 691 – Steward Observatory, Kitt Peak-Spacewatch MPS 294918
2009 09 18.43135 02 26 03.28 +15 37 53.6 20.2 V 691 – Steward Observatory, Kitt Peak-Spacewatch MPS 294918
2009 09 18.44903 02 26 03.03 +15 37 52.2 20.4 V 691 – Steward Observatory, Kitt Peak-Spacewatch MPS 294918
2009 09 22.43839 02 24 51.85 +15 34 21.7 20.3 V 691 – Steward Observatory, Kitt Peak-Spacewatch MPS 295715
2009 09 22.45606 02 24 51.50 +15 34 19.7 20.3 V 691 – Steward Observatory, Kitt Peak-Spacewatch MPS 295715
2009 09 22.47375 02 24 51.01 +15 34 19.6 20.3 V 691 – Steward Observatory, Kitt Peak-Spacewatch MPS 295715
2009 10 21.37782 02 06 29.66 +14 14 38.2 19.5 V G96 – Mt. Lemmon Survey MPS 300492
2009 10 21.38727 02 06 29.16 +14 14 35.9 19.9 V G96 – Mt. Lemmon Survey MPS 300492
2009 10 21.39659 02 06 28.69 +14 14 33.6 19.7 V G96 – Mt. Lemmon Survey MPS 300492
2009 10 21.40598 02 06 28.22 +14 14 31.3 19.4 V G96 – Mt. Lemmon Survey MPS 300492
2009 10 25.15852 02 03 20.46 +13 59 02.3   691 – Steward Observatory, Kitt Peak-Spacewatch MPS 301902
2009 10 25.17570 02 03 19.58 +13 58 58.2   691 – Steward Observatory, Kitt Peak-Spacewatch MPS 301902
2009 10 25.19288 02 03 18.66 +13 58 53.6   691 – Steward Observatory, Kitt Peak-Spacewatch MPS 301902
2009 10 27.93657 02 01 00.58 +13 47 17.5 18.9 V J75 – OAM Observatory, La Sagra MPS 301902
2009 10 27.94839 02 00 59.89 +13 47 13.0 18.6 V J75 – OAM Observatory, La Sagra MPS 301902
2009 10 27.96020 02 00 59.31 +13 47 10.4 19.6 V J75 – OAM Observatory, La Sagra MPS 301902
2009 11 09.19309 01 51 13.53 +12 55 32.6 20.4 V 703 – Catalina Sky Survey MPS 303112
2009 11 09.20100 01 51 13.17 +12 55 30.5 19.7 V 703 – Catalina Sky Survey MPS 303112
2009 11 09.20896 01 51 12.70 +12 55 27.8 19.9 V 703 – Catalina Sky Survey MPS 303112
2009 11 09.21694 01 51 12.45 +12 55 27.1 20.6 V 703 – Catalina Sky Survey MPS 303112
2009 11 24.13410 01 42 12.24 +12 03 48.3 20.3 V G96 – Mt. Lemmon Survey MPS 306531
2009 11 24.13994 01 42 12.09 +12 03 47.6 20.3 V G96 – Mt. Lemmon Survey MPS 306531
2009 11 24.14589 01 42 11.91 +12 03 46.7 20.2 V G96 – Mt. Lemmon Survey MPS 306531
2009 11 24.15198 01 42 11.73 +12 03 45.4 19.9 V G96 – Mt. Lemmon Survey MPS 306531
2010 12 09.44472 09 50 30.58 +13 43 55.4 21.0 V G96 – Mt. Lemmon Survey MPS 362490
2010 12 09.45169 09 50 30.69 +13 43 54.7 21.1 V G96 – Mt. Lemmon Survey MPS 362490
2010 12 09.45866 09 50 30.80 +13 43 54.3 20.8 V G96 – Mt. Lemmon Survey MPS 362490
2010 12 09.46568 09 50 30.91 +13 43 53.7 20.9 V G96 – Mt. Lemmon Survey MPS 362490
2011 01 16.41521 09 43 35.47 +14 15 14.4 20.5 V G96 – Mt. Lemmon Survey MPS 368376
2011 01 16.42264 09 43 35.14 +14 15 15.9 20.5 V G96 – Mt. Lemmon Survey MPS 368376
2011 01 16.43016 09 43 34.86 +14 15 16.5 20.2 V G96 – Mt. Lemmon Survey MPS 368376
2011 01 16.43768 09 43 34.57 +14 15 18.2 20.5 V G96 – Mt. Lemmon Survey MPS 368376
2011 01 27.40215 09 35 39.58 +14 52 11.8 20.2 V G96 – Mt. Lemmon Survey MPS 368376
2011 01 27.41149 09 35 39.12 +14 52 14.5 20.4 V G96 – Mt. Lemmon Survey MPS 368376
2011 01 27.42074 09 35 38.65 +14 52 16.5 20.3 V G96 – Mt. Lemmon Survey MPS 368376
